Date String (YYYY-MM-DD hh:mm:ss) UTC,Instrument flags,absolute air pressure of the measurement (hPa),sample flow rate (lpm),inlet stack bypass flow (lpm),air temperature of the measurement (°C),ambient temperature measured by the external sensor (°C),aerosol sample conditioner tube jacket temperature (°C),OPC LED temperature (°C),internal box temperature (°C),relative humidity of the measurement (%),span deviation,mass concentration of particles derived from Lorenz-Mie calculation of OPC scattering (μg/m³),mass concentration of particles derived from Lorenz-Mie calculation of OPC scattering (μg/m³),mass concentration of particles derived from Lorenz-Mie calculation of OPC scattering (μg/m³)
DateTimeUTC,F1_M11,P_M11,Q1_M11,Q2_M11,T1_M11,T2_M11,T3_M11,T4_M11,T5_M11,U1_M11,ZSPAN_M11,X2_M11,X0_M11,X1_M11
2023-10-10 20:00:00,SystemResetWarning,0821.1,5.00,000.00,028.2,024.5,000.0,036.5,029.9,7.0,0000.0,0005.28,0008.84,0005.04
2023-10-10 20:01:00,SystemResetWarning,0821.0,5.01,000.00,028.2,024.5,000.0,036.5,029.8,7.1,0000.0,0005.23,0008.66,0005.00
2023-10-10 20:02:00,SystemResetWarning,0820.8,5.01,000.00,028.1,024.8,000.0,036.5,029.6,7.4,0000.0,0005.18,0008.60,0004.96
2023-10-10 20:03:00,SystemResetWarning,0820.8,5.00,000.00,028.0,025.2,000.0,036.5,029.6,7.4,0000.0,0005.13,0008.59,0004.91
2023-10-10 20:04:00,SystemResetWarning,0820.8,5.00,000.00,028.1,025.7,000.0,036.5,029.7,7.4,0000.0,0005.09,0009.15,0004.86
2023-10-10 20:05:00,SystemResetWarning,0820.8,5.00,000.00,028.1,026.1,000.0,036.5,029.8,7.4,0000.0,0004.98,0009.04,0004.78
2023-10-10 20:06:00,SystemResetWarning,0820.8,5.00,000.00,028.1,026.4,000.0,036.5,029.9,7.5,0000.0,0004.95,0009.04,0004.73
2023-10-10 20:07:00,SystemResetWarning,0820.8,4.99,000.00,028.2,026.8,000.0,036.6,030.0,7.6,0000.0,0004.94,0009.12,0004.70
2023-10-10 20:08:00,SystemResetWarning,0820.8,5.00,000.00,028.2,027.0,000.0,036.6,030.1,7.6,0000.0,0004.90,0009.18,0004.65
2023-10-10 20:09:00,SystemResetWarning,0820.8,4.99,000.00,028.3,026.9,000.0,036.6,030.2,7.6,0000.0,0004.92,0009.14,0004.65
2023-10-10 20:10:00,SystemResetWarning,0820.8,5.00,000.00,028.2,025.4,000.0,036.6,030.0,7.4,0000.0,0004.93,0008.67,0004.67
2023-10-10 20:11:00,SystemResetWarning,0820.7,5.01,000.00,028.1,024.4,000.0,036.5,029.8,7.2,0000.0,0004.95,0008.67,0004.70
2023-10-10 20:12:00,SystemResetWarning,0820.7,5.01,000.00,028.1,024.6,000.0,036.5,029.7,7.4,0000.0,0005.02,0008.76,0004.77
2023-10-10 20:13:00,SystemResetWarning,0820.6,5.01,000.00,028.0,025.0,000.0,036.5,029.6,7.6,0000.0,0005.07,0008.84,0004.82
2023-10-10 20:14:00,SystemResetWarning,0820.6,4.99,000.00,028.0,025.4,000.0,036.5,029.7,7.6,0000.0,0005.13,0009.04,0004.88
2023-10-10 20:15:00,SystemResetWarning,0820.6,4.99,000.00,028.1,025.8,000.0,036.5,029.8,7.6,0000.0,0005.16,0008.52,0004.92
2023-10-10 20:16:00,SystemResetWarning,0820.6,5.01,000.00,028.1,026.2,000.0,036.5,029.9,7.6,0000.0,0005.23,0008.39,0004.97
2023-10-10 20:17:00,SystemResetWarning,0820.6,5.01,000.00,028.1,026.6,000.0,036.5,029.9,7.7,0000.0,0005.20,0008.33,0004.95
2023-10-10 20:18:00,SystemResetWarning,0820.6,4.99,000.00,028.2,026.9,000.0,036.6,030.0,7.6,0000.0,0005.07,0008.09,0004.83
2023-10-10 20:19:00,SystemResetWarning,0820.6,4.99,000.00,028.2,026.9,000.0,036.6,030.1,7.7,0000.0,0004.85,0007.74,0004.64
2023-10-10 20:20:00,SystemResetWarning,0820.6,5.00,000.00,028.2,025.6,000.0,036.5,029.9,7.7,0000.0,0004.61,0007.20,0004.41
2023-10-10 20:21:00,SystemResetWarning,0820.6,5.01,000.00,028.1,024.5,000.0,036.5,029.7,7.6,0000.0,0004.43,0007.22,0004.22
2023-10-10 20:22:00,SystemResetWarning,0820.5,5.02,000.00,028.1,024.6,000.0,036.4,029.7,7.7,0000.0,0004.25,0007.20,0004.03
2023-10-10 20:23:00,SystemResetWarning,0820.6,5.00,000.00,028.0,024.9,000.0,036.4,029.6,7.8,0000.0,0004.02,0006.95,0003.80
2023-10-10 20:24:00,SystemResetWarning,0820.5,5.00,000.00,028.0,025.3,000.0,036.4,029.6,7.8,0000.0,0003.81,0006.41,0003.61
2023-10-10 20:25:00,SystemResetWarning,0820.6,4.99,000.00,028.0,025.8,000.0,036.4,029.7,7.8,0000.0,0003.64,0005.71,0003.44
2023-10-10 20:26:00,SystemResetWarning,0820.5,5.01,000.00,028.0,026.2,000.0,036.5,029.8,7.8,0000.0,0003.54,0005.66,0003.32
2023-10-10 20:27:00,SystemResetWarning,0820.6,5.00,000.00,028.1,026.5,000.0,036.5,029.9,7.9,0000.0,0003.39,0005.62,0003.19
2023-10-10 20:28:00,SystemResetWarning,0820.8,4.99,000.00,028.1,026.8,000.0,036.5,030.0,7.8,0000.0,0003.31,0005.84,0003.10
2023-10-10 20:29:00,SystemResetWarning,0820.8,4.99,000.00,028.2,027.0,000.0,036.5,030.1,7.8,0000.0,0003.27,0006.33,0003.03
2023-10-10 20:30:00,SystemResetWarning,0820.9,5.00,000.00,028.2,025.8,000.0,036.5,030.0,7.7,0000.0,0003.33,0006.60,0003.10
2023-10-10 20:31:00,SystemResetWarning,0820.8,5.00,000.00,028.1,024.5,000.0,036.4,029.7,7.6,0000.0,0003.42,0006.81,0003.18
2023-10-10 20:32:00,SystemResetWarning,0820.9,5.01,000.00,028.0,024.5,000.0,036.4,029.7,7.6,0000.0,0003.48,0006.74,0003.24
2023-10-10 20:33:00,SystemResetWarning,0820.9,5.01,000.00,028.0,024.9,000.0,036.4,029.6,7.6,0000.0,0003.48,0006.35,0003.24
2023-10-10 20:34:00,SystemResetWarning,0820.5,5.00,000.00,028.0,025.3,000.0,036.4,029.6,7.7,0000.0,0003.44,0006.27,0003.20
2023-10-10 20:35:00,SystemResetWarning,0820.7,5.00,000.00,028.0,025.7,000.0,036.4,029.7,7.7,0000.0,0003.42,0006.29,0003.16
2023-10-10 20:36:00,SystemResetWarning,0820.7,5.00,000.00,028.0,026.1,000.0,036.4,029.8,7.7,0000.0,0003.35,0006.15,0003.11
2023-10-10 20:37:00,SystemResetWarning,0820.6,5.00,000.00,028.0,026.4,000.0,036.5,029.9,7.5,0000.0,0003.23,0005.82,0002.96
2023-10-10 20:38:00,SystemResetWarning,0820.9,5.00,000.00,028.1,026.7,000.0,036.5,030.0,7.4,0000.0,0003.14,0005.46,0002.80
2023-10-10 20:39:00,SystemResetWarning,0820.6,5.00,000.00,028.2,027.0,000.0,036.5,030.0,7.4,0000.0,0002.99,0004.88,0002.61
2023-10-10 20:40:00,SystemResetWarning,0820.9,4.99,000.00,028.2,026.8,000.0,036.5,030.1,7.3,0000.0,0002.81,0004.16,0002.46
2023-10-10 20:41:00,SystemResetWarning,0820.5,4.99,000.00,028.2,025.3,000.0,036.5,029.9,7.4,0000.0,0002.65,0004.37,0002.31
2023-10-10 20:42:00,SystemResetWarning,0820.3,5.01,000.00,028.1,024.4,000.0,036.4,029.7,7.5,0000.0,0002.41,0004.64,0002.10
2023-10-10 20:43:00,SystemResetWarning,0820.3,5.01,000.00,028.0,024.6,000.0,036.4,029.6,7.6,0000.0,0002.21,0004.37,0001.92
2023-10-10 20:44:00,SystemResetWarning,0820.3,5.00,000.00,028.0,025.0,000.0,036.4,029.5,7.7,0000.0,0002.10,0004.19,0001.83
2023-10-10 20:45:00,SystemResetWarning,0820.3,5.00,000.00,028.0,025.4,000.0,036.4,029.6,7.8,0000.0,0002.12,0004.19,0001.83
2023-10-10 20:46:00,SystemResetWarning,0820.2,4.99,000.00,028.0,025.8,000.0,036.4,029.7,7.6,0000.0,0002.18,0004.34,0001.85
2023-10-10 20:47:00,SystemResetWarning,0820.3,5.00,000.00,028.0,026.2,000.0,036.4,029.8,7.4,0000.0,0002.44,0007.55,0001.89
2023-10-10 20:48:00,SystemResetWarning,0820.2,5.00,000.00,028.1,026.5,000.0,036.4,029.9,7.6,0000.0,0002.54,0008.06,0001.90
2023-10-10 20:49:00,SystemResetWarning,0820.3,5.00,000.00,028.1,026.8,000.0,036.5,029.9,7.6,0000.0,0002.56,0008.18,0001.90
2023-10-10 20:50:00,SystemResetWarning,0820.3,4.98,000.00,028.2,026.8,000.0,036.5,030.0,7.7,0000.0,0002.54,0008.28,0001.89
2023-10-10 20:51:00,SystemResetWarning,0820.3,5.00,000.00,028.2,025.4,000.0,036.4,029.9,7.6,0000.0,0002.53,0008.70,0001.87
2023-10-10 20:52:00,SystemResetWarning,0820.2,5.01,000.00,028.1,024.3,000.0,036.4,029.7,7.4,0000.0,0002.52,0008.65,0001.86
2023-10-10 20:53:00,SystemResetWarning,0820.2,5.01,000.00,028.0,024.5,000.0,036.3,029.6,7.4,0000.0,0002.54,0008.42,0001.86
2023-10-10 20:54:00,SystemResetWarning,0820.2,5.00,000.00,028.0,024.9,000.0,036.3,029.5,7.4,0000.0,0002.57,0008.46,0001.86
2023-10-10 20:55:00,SystemResetWarning,0820.2,4.99,000.00,027.9,025.3,000.0,036.4,029.6,7.4,0000.0,0002.54,0008.42,0001.85
2023-10-10 20:56:00,SystemResetWarning,0820.3,5.00,000.00,027.9,025.7,000.0,036.4,029.7,7.5,0000.0,0002.55,0008.49,0001.85
2023-10-10 20:57:00,SystemResetWarning,0820.2,5.00,000.00,028.0,026.2,000.0,036.4,029.8,7.4,0000.0,0002.50,0008.39,0001.85
2023-10-10 20:58:00,SystemResetWarning,0820.2,5.01,000.00,028.0,026.5,000.0,036.4,029.9,7.4,0000.0,0002.27,0006.22,0001.83
2023-10-10 20:59:00,SystemResetWarning,0820.3,5.01,000.00,028.1,026.8,000.0,036.4,029.9,7.4,0000.0,0002.18,0005.26,0001.84
